Regional Weather Roundup
Issued by NWS Sioux Falls, SD

Home | Current Version | Previous Version | Text Only | Print | Product List | Glossary On
Versions: 1 2 3 4 5 6 7 8 9 10 11 12 13 14 15 16 17 18 19 20 21 22 23 24 25 26 27 28 29 30 31 32 33 34 35 36 37 38 39 40 41 42 43 44 45 46 47 48 49 50
000
ASUS43 KFSD 301202
RWRFSD

WEATHER ROUNDUP FOR SE SOUTH DAKOTA/SW MINNESOTA/NW IOWA
NATIONAL WEATHER SERVICE SIOUX FALLS SD
700 AM CDT SUN AUG 30 2015

NOTE: "FAIR" INDICATES FEW OR NO CLOUDS BELOW 12,000 FEET WITH NO
SIGNIFICANT WEATHER AND OR OBSTRUCTIONS TO VISIBILITY.


SDZ038>040-050-052>070-301300-
SOUTHEAST SOUTH DAKOTA

CITY           SKY/WX    TMP DP  RH WIND       PRES   REMARKS
BROOKINGS      CLOUDY    63  57  82 S12       29.99R
CHAMBERLAIN    NOT AVBL
HURON          CLEAR     63  62  97 S10       29.88S
6HR MIN TEMP:  63; 6HR MAX TEMP:  66;

MADISON        FOG       59  59 100 S12       29.98R VSB 1
MITCHELL       CLEAR     62  61  96 SE12      29.93R
6HR MIN TEMP:  62; 6HR MAX TEMP:  67;

SIOUX FALLS    CLOUDY    62  60  93 S12       30.00R FOG
6HR MIN TEMP:  62; 6HR MAX TEMP:  63;

WINNER         FAIR      69  56  62 S18       29.89F
YANKTON        CLOUDY    64  63  94 SE9       29.98S
$$

MNZ071-072-080-081-089-090-097-098-301300-
SOUTHWEST MINNESOTA

CITY           SKY/WX    TMP DP  RH WIND       PRES   REMARKS
FAIRMONT       CLOUDY    61  55  82 S10       30.01S
JACKSON        CLOUDY    61  61 100 SW12      30.02F
LUVERNE        CLOUDY    63  61  94 S6        30.02R FOG
MARSHALL       PTCLDY    61  55  82 S9        29.97R
6HR MIN TEMP:  61; 6HR MAX TEMP:  64;

MONTEVIDEO     CLEAR     61  61 100 S8        29.96R
PIPESTONE      FOG       63  61  94 S10       30.00R VSB 1
REDWOOD FALLS  CLOUDY    62  60  93 S12       29.98R
TRACY          PTCLDY    62  60  94 S13G21    29.97S
WINDOM         CLOUDY    63  59  88 S13       30.01R
WORTHINGTON    CLOUDY    61  57  88 S12       30.02S
$$

IAZ001>003-012>014-020>022-031-032-NEZ013-014-SDZ071-301300-
NORTHWEST IOWA

CITY           SKY/WX    TMP DP  RH WIND       PRES   REMARKS
DENISON        CLOUDY    63  63 100 S5        30.02R FOG
ESTHERVILLE    CLOUDY    60  59  96 SW9       30.03S
SIOUX CITY     NOT AVBL
SPENCER        CLOUDY    63  59  87 S7        30.03S
6HR MIN TEMP:  61; 6HR MAX TEMP:  63;

$$

ABBREVIATIONS USED IN REMARKS
   TC - TEMPERATURE IN CELSIUS
  WCI - WIND CHILL INDEX
   HX - HEAT INDEX
  VSB - VISIBILITY



USA.gov is the U.S. government's official web portal to all federal, state and local government web resources and services.